KA2QBS Weather Reports


time (UTC)temp
C
wind
direction
speed
KPH
gust
KPH
rain 1hr
cm
rain 24hr
cm
rain mn
cm
humidity
%
barometer
mb
20260507200105 10 280 6.4 16.1 0.00 0.00 0.00 51 1011.3
20260507194603 11 308 11.3 22.5 0.00 0.00 0.00 48 1011.5
20260507193058 11 328 8.0 35.4 0.00 0.00 0.00 48 1011.5
20260507191556 11 296 8.0 19.3 0.00 0.00 0.00 51 1011.8
20260507190053 10 296 12.9 22.5 0.00 0.00 0.00 51 1012.0
20260507184552 10 275 12.9 29.0 0.00 0.00 0.00 52 1012.4
20260507183051 11 328 6.4 22.5 0.00 0.00 0.00 52 1012.3
20260507181551 10 320 8.0 20.9 0.00 0.00 0.00 53 1012.5
20260507180049 11 322 6.4 20.9 0.00 0.00 0.00 55 1012.5
20260507174549 10 290 6.4 20.9 0.00 0.00 0.00 55 1012.5
20260507173044 10 294 4.8 20.9 0.00 0.00 0.00 56 1012.6
20260507171543 10 313 4.8 17.7 0.00 0.00 0.00 58 1012.7
20260507170043 10 335 1.6 17.7 0.00 0.00 0.00 61 1012.9
20260507164540 9 267 9.7 25.7 0.00 0.00 0.00 59 1013.0
20260507163039 9 281 6.4 17.7 0.00 0.00 0.00 65 1013.2
20260507161540 8 286 9.7 27.4 0.00 0.00 0.00 60 1013.5
20260507160039 8 326 6.4 24.1 0.00 0.00 0.00 63 1013.5
20260507154535 8 325 3.2 20.9 0.00 0.00 0.00 66 1013.6
20260507153035 8 309 8.0 19.3 0.00 0.00 0.00 63 1013.7
20260507151533 8 331 1.6 22.5 0.00 0.00 0.00 66 1013.8
20260507150032 8 315 12.9 27.4 0.00 0.00 0.00 63 1013.8
20260507144534 8 308 9.7 20.9 0.00 0.00 0.00 65 1013.9
20260507143032 7 336 3.2 24.1 0.00 0.00 0.00 68 1013.9
20260507141526 7 317 1.6 16.1 0.00 0.00 0.00 69 1014.0
20260507140028 7 308 4.8 20.9 0.00 0.00 0.00 72 1014.0
20260507134527 7 294 3.2 17.7 0.00 0.00 0.00 71 1014.0
20260507133022 6 306 8.0 16.1 0.00 0.00 0.00 72 1014.0
20260507131523 6 300 0.0 14.5 0.00 0.00 0.00 76 1014.0
20260507130016 5 313 1.6 9.7 0.00 0.00 0.00 79 1014.1
20260507124518 5 290 4.8 14.5 0.00 0.00 0.00 78 1014.0
20260507123021 5 324 0.0 6.4 0.00 0.00 0.00 83 1013.9
20260507121513 4 309 0.0 0.0 0.00 0.00 0.00 87 1013.9
20260507120011 3 308 0.0 1.6 0.00 0.00 0.00 89 1013.9
20260507114510 3 286 0.0 0.0 0.00 0.00 0.00 91 1013.9
20260507113009 2 286 0.0 0.0 0.00 0.00 0.00 92 1013.8
20260507111510 2 286 0.0 0.0 0.00 0.00 0.00 92 1013.7
20260507110011 2 286 0.0 0.0 0.00 0.00 0.00 92 1013.5
20260507104505 2 286 0.0 0.0 0.00 0.00 0.00 91 1013.5
20260507103007 2 286 0.0 0.0 0.00 0.00 0.00 93 1013.1
20260507101507 2 286 0.0 0.0 0.00 0.00 0.00 94 1013.2
20260507094603 2 286 0.0 0.0 0.00 0.00 0.00 94 1013.0
20260507093058 2 286 0.0 0.0 0.00 0.00 0.00 94 1013.0
20260507091603 2 286 0.0 8.0 0.00 0.00 0.00 94 1013.1
20260507090111 2 279 0.0 9.7 0.00 0.00 0.00 94 1013.1
20260507084553 3 295 0.0 9.7 0.00 0.00 0.00 94 1013.1
20260507083050 3 305 1.6 6.4 0.00 0.00 0.00 95 1012.9
20260507081555 3 302 0.0 6.4 0.00 0.00 0.00 95 1012.9
20260507080045 3 301 0.0 8.0 0.00 0.00 0.00 95 1012.8
20260507074544 4 305 0.0 6.4 0.00 0.00 0.00 95 1012.7
20260507073055 4 298 1.6 12.9 0.00 0.00 0.00 95 1012.8
20260507071542 4 269 0.0 8.0 0.00 0.00 0.00 96 1012.9
20260507070058 5 303 3.2 9.7 0.00 0.00 0.00 96 1012.8
20260507064539 5 295 3.2 9.7 0.00 0.00 0.00 96 1012.7
20260507063036 5 297 0.0 3.2 0.00 0.00 0.00 96 1012.5
20260507061536 5 298 3.2 14.5 0.00 0.00 0.00 96 1012.7
20260507060040 5 271 4.8 16.1 0.00 0.00 0.00 96 1012.6
20260507054531 5 291 0.0 8.0 0.00 0.00 0.00 96 1012.6
20260507053031 5 290 0.0 9.7 0.00 0.00 0.00 96 1012.6
20260507051528 5 284 0.0 4.8 0.00 0.00 0.00 96 1012.7
20260507050032 5 281 0.0 0.0 0.00 0.00 0.00 96 1012.7
20260507044540 6 282 0.0 8.0 0.00 0.00 0.00 96 1012.5
20260507043027 6 281 0.0 0.0 0.00 0.00 0.00 96 1012.4
20260507041524 6 281 0.0 8.0 0.00 0.00 0.00 96 1012.4
20260507040023 6 279 1.6 11.3 0.00 0.00 0.00 96 1012.6
20260507034521 6 329 0.0 4.8 0.00 0.00 0.00 96 1012.5
20260507033020 6 265 0.0 0.0 0.00 0.00 0.00 97 1012.6
20260507031519 6 265 0.0 0.0 0.00 0.00 0.00 97 1012.4
20260507030017 6 262 1.6 9.7 0.00 0.00 0.00 97 1012.4
20260507024516 6 276 1.6 11.3 0.00 0.00 0.00 97 1012.3
20260507023014 6 284 1.6 6.4 0.00 0.00 0.00 97 1012.4
20260507021512 6 284 3.2 11.3 0.00 0.00 0.00 97 1012.5
20260507020010 7 298 0.0 8.0 0.00 0.00 0.00 97 1012.8
20260507014506 7 303 1.6 8.0 0.00 0.00 0.00 97 1012.7
20260507013006 7 277 0.0 6.4 0.00 0.00 0.00 97 1012.5
20260507011505 7 281 1.6 14.5 0.00 0.00 0.00 98 1012.6
20260507010120 7 286 1.6 8.0 0.00 0.00 0.00 98 1012.4
20260507004558 7 282 0.0 6.4 0.00 0.00 0.00 98 1011.9
20260507003056 7 284 0.0 0.0 0.00 0.00 0.00 98 1011.6
20260507001604 7 284 0.0 0.0 0.00 0.00 0.00 97 1011.2
20260507000053 7 284 0.0 0.0 0.00 0.00 0.00 97 1011.1
20260506234555 7 284 0.0 0.0 0.00 0.00 0.00 97 1011.0
20260506233054 7 284 0.0 0.0 0.00 0.00 0.00 97 1010.9
20260506231550 7 284 0.0 0.0 0.00 0.00 0.00 97 1010.7
20260506230055 7 284 0.0 0.0 0.00 0.00 0.00 97 1010.6
20260506224550 7 283 0.0 3.2 0.00 0.00 0.00 97 1010.4
20260506223049 7 282 0.0 4.8 0.00 0.00 0.00 97 1010.2
20260506221549 8 315 0.0 3.2 0.00 0.00 0.00 98 1010.1
20260506220051 8 314 0.0 8.0 0.00 0.00 0.00 98 1010.0
20260506214548 8 318 1.6 8.0 0.00 0.00 0.00 98 1009.7
20260506213047 8 329 3.2 11.3 0.00 0.00 0.00 98 1009.4
20260506211546 8 281 0.0 9.7 0.00 0.00 0.00 98 1009.1
20260506210050 8 310 3.2 9.7 0.00 0.00 0.00 99 1008.9
20260506204545 8 325 3.2 16.1 0.00 0.00 0.00 99 1008.9
20260506203051 8 293 0.0 9.7 0.00 0.00 0.00 99 1008.7
20260506201604 8 284 1.6 8.0 0.00 0.00 0.00 99 1008.6